Вернуться в каталог

IOD1_STARTICAL

АктивенНаукаSSO
NORAD 63212·PAYLOAD·🇪🇸 Spain

Запущен Mar 15, 2025 с Vandenberg Space Force Base

Loading…

Ближайшие Пролёты (ближайшие 24 часа)

TLE

СвежийSource: Space-Track

Эпоха: Sep 14, 2026, 04:42 UTC

1 63212U 25052C   26257.19650689  .00149786  00000-0  12626-2 0  9998
2 63212  97.3656 162.3344 0007922 121.0089 239.1952 15.69316254 84360

Отслеживайте IOD1_STARTICAL в реальном времени с AllMySat

Download on the App Store